Regional Weather Roundup
Issued by NWS

Home | Current Version | Previous Version | Text Only | Print | Product List | Glossary On
Versions: 1 2 3 4 5 6 7 8 9 10 11 12 13 14 15 16 17 18 19 20 21 22 23 24 25 26 27 28 29 30 31 32 33 34 35 36 37 38 39 40 41 42 43 44 45 46 47 48 49 50
000
ASUS43 KMKX 312011
RWRWI

WISCONSIN REGIONAL WEATHER ROUNDUP
NATIONAL WEATHER SERVICE MILWAUKEE/SULLIVAN WI
300 PM CDT TUE MAY 31 2016

NOTE: "FAIR" INDICATES FEW OR NO CLOUDS BELOW 12,000 FEET WITH NO
SIGNIFICANT WEATHER AND/OR OBSTRUCTIONS TO VISIBILITY.

WIZ001-002-006>008-014>016-023>028-312100-
NORTHWEST WISCONSIN

CITY           SKY/WX    TMP DP  RH WIND       PRES   REMARKS
SUPERIOR ARPT  CLOUDY    42  42  98 E17G23    29.93F
ASHLAND        LGT RAIN  51  48  89 N13       29.90F
HAYWARD        CLOUDY    67  63  87 S5        29.88F
SIREN          CLOUDY    71  60  70 SW8       29.85F
CUMBERLAND     CLOUDY    66  63  88 S3        29.87F
RICE LAKE      CLOUDY    71  61  72 S5        29.88F
CHETEK         CLOUDY    74  64  72 W6        29.86F
LADYSMITH      CLOUDY    76  61  59 SE17G24   29.87F
EAU CLAIRE     PTSUNNY   79  59  50 S13G25    29.80F HX  80
MENOMONIE      CLOUDY    74  69  84 W9        29.84F
NEW RICHMOND   CLOUDY    71  61  70 SW7       29.86F
OSCEOLA        LGT RAIN  71  63  76 SW8       29.88F
$$

WIZ003>005-009-010-017-018-312100-
NORTH CENTRAL WISCONSIN

CITY           SKY/WX    TMP DP  RH WIND       PRES   REMARKS
MANITOWISH WTR NOT AVBL
ARBOR VITAE    MOSUNNY   74  55  51 SE18G24   29.94F
WOODRUFF       MOSUNNY   74  55  51 SE18G24   29.94F
RHINELANDER    MOSUNNY   71  52  50 SE14G25   29.98F
EAGLE RIVER      N/A     73  48  41 SE8G23    29.96F
LAND O LAKES   MOSUNNY   73  49  42 SE13G23   29.97F
PHILLIPS       PTSUNNY   74  59  60 SE17G23   29.90F
TOMAHAWK       PTSUNNY   71  55  57 SE8G17    29.96F
MEDFORD        CLOUDY    70  60  69 SE12G23   29.94S
MERRILL        LGT RAIN  69  56  65 SE12G21   29.98S
$$

WIZ029-030-035-036-043>047-312100-
CENTRAL WISCONSIN

CITY           SKY/WX    TMP DP  RH WIND       PRES   REMARKS
WAUSAU         CLOUDY    73  57  57 SE17G26   29.96F
MOSINEE        MOSUNNY   70  59  68 SE14G21   29.99F
MARSHFIELD     CLOUDY    73  59  61 SE20G31   29.93F
STEVENS POINT  CLOUDY    68  58  70 S18       29.99S
WAUPACA        LGT RAIN  73  59  60 SE9       30.01S
WAUTOMA        LGT RAIN N/A N/A N/A E8        29.98F
WISC RAPIDS    LGT RAIN  70  57  63 SE9       29.97F
CAMP DOUGLAS   PTSUNNY   73  72  94 SE16G23   29.92F
$$

WIZ011>013-019>022-031-037>040-048>050-312100-
NORTHEAST WISCONSIN

CITY           SKY/WX    TMP DP  RH WIND       PRES   REMARKS
ANTIGO         PTSUNNY   67  54  63 SE15      30.00F
SHAWANO        CLOUDY    69  53  56 E10       30.03F
OCONTO         MOSUNNY   65  49  55 E7        30.03F
STURGEON BAY   MOSUNNY   66  51  58 VRB6      30.05S
GREEN BAY      CLOUDY    66  56  70 NE8       30.03F
MANITOWOC      CLOUDY    63  51  65 N7        30.05R
APPLETON       CLOUDY    72  54  53 SE7       30.01R
CLINTONVILLE   CLOUDY    68  54  60 E5        30.02S
OSHKOSH        CLOUDY    70  52  52 S9        30.02R
$$

WIZ032>034-041-042-053>061-312100-
SOUTHWEST WISCONSIN

CITY           SKY/WX    TMP DP  RH WIND       PRES   REMARKS
LA CROSSE      CLOUDY    83  61  47 S15       29.84F HX  83
SPARTA         PTSUNNY   77  64  64 SE15      29.90S
VIROQUA        CLOUDY    69  65  86 SE13      29.92R
BOSCOBEL       NOT AVBL
PRAIRIE DU CHI LGT RAIN  72  63  74 SE12G20   29.89F
PLATTEVILLE    CLOUDY    71  65  83 SE13      29.95F
$$

WIZ056-057-062-063-064-067-068-312100-
SOUTH CENTRAL WISCONSIN

CITY           SKY/WX    TMP DP  RH WIND       PRES   REMARKS
REEDSBURG      CLOUDY    67  63  87 SE3       29.94F
BARABOO/DELLS  RAIN      66  60  81 SE10      29.95F
LONE ROCK      MOSUNNY   70  64  81 SE9       29.95F
MINERAL POINT  CLOUDY    70  64  83 SE13      29.95F
MADISON        LGT RAIN  67  61  81 SE10      29.98F
MIDDLETON      CLOUDY    68  63  82 SE8       29.98F
WATERTOWN      LGT RAIN  64  64 100 SE5       30.02F
MONROE         PTSUNNY   64  61  88 E7        29.98F
JANESVILLE     CLOUDY    68  64  88 CALM      30.01F
$$

WIZ051-052-058>065-066-070>072-312100-
SOUTHEAST WISCONSIN

CITY           SKY/WX    TMP DP  RH WIND       PRES   REMARKS
MILWAUKEE      CLOUDY    68  56  65 N7        30.02R
WAUKESHA       RAIN      63  61  94 NW7       30.05R
MILWAUKEE/TIMM CLOUDY    70  55  60 W12       30.05R
RACINE         CLOUDY    73  53  49 CALM      30.02S
BURLINGTON     CLOUDY    66  61  85 NW9       30.02F
KENOSHA        CLOUDY    73  60  63 NW10      30.01R
FOND DU LAC    LGT RAIN  68  59  73 S16       30.03S
SHEBOYGAN      CLOUDY    61  52  72 NE6       30.05R
WEST BEND      PTSUNNY   70  55  60 SW10      30.05R
JUNEAU         LGT RAIN  65  62  90 SE13      30.04F
$$

LSZ147-162-312100-
LAKE SUPERIOR

STATION/POSITION TIME  TEMP    WIND        PRES    WAVE
                       AIR SEA DIR/SP/G            HT/PER
                 (UTC) (F)     (DEG/KT/KT) (MB)    (FT/S)
W MID LAKE BUOY  1950   41 38   50/ 14/ 17 1015.7F   3/ 4
DEVILS ISLAND    2000   43      70/ 23/ 25 1013.7F
PORT WING        1920   43      40/ 19/ 24   N/A
SAXON HARBOR     1940   67      10/  2/  3 1011.9F
$$

LMZ867-665-643>646-312100-
LAKE MICHIGAN

STATION/POSITION TIME  TEMP    WIND        PRES    WAVE
                       AIR SEA DIR/SP/G            HT/PER
                 (UTC) (F)     (DEG/KT/KT) (MB)    (FT/S)
CHAMBERS ISLAND  1900   56      10/  9/ 10 1018.3F
N MID LAKE BUOY  1950   50 48   40/  8/  8 1017.5F   1/ 4
NORTHPORT PIER   1900   54      80/  8/ 10 1018.3F
SISTER BAY       1920   66     120/ 12/ 15   N/A
ALGOMA LAKESHORE 1932           70/ 16/ 19   N/A
KEWAUNEE LAKESHO 1900   52      30/ 10/ 13 1016.9F
SHEBOYGAN LAKESH 2000   53     340/  8/  9 1018.0R
PORT WASHINGTON  1920   54      20/  3/ 15 1018.3R
S MID LAKE BUOY  1950   60 56   80/  6/  6 1015.2F   0
KENOSHA   LAKESH 2000   65     350/  7/  7 1015.6S
$$

TC  - TEMPERATURE IN CELSIUS
VSB - VISIBILITY IN STATUTE MILES
WCI - WIND CHILL INDEX
HX  - HEAT INDEX





USA.gov is the U.S. government's official web portal to all federal, state and local government web resources and services.